When you browse on this site, cookies collect data to enhance your experience and personalize the content and advertising you see.
Visit our Privacy Policy to learn more. By continuing to use the site, you agree to this use of cookies and data.
  • In Czech Republic
  • List of Countries
  • For 7 days
  • Water Temperature
  • Weather Map
  • Weather Widgets
  • user-avatar
    Login

    Hourly Weather Rumat Heib

    Today, 1 April, Wednesday

    Time Temperature Precipitation Wind Pressure Humidity
    00:00 +15°C° 0 mm 2 mps 740 mmHg 89%
    01:00 +14°C° 0 mm 2 mps 740 mmHg 89%
    02:00 +13°C° 0 mm 3 mps 740 mmHg 90%
    03:00 +13°C° 0.3 mm 3 mps 740 mmHg 89%
    04:00 +13°C° 0.3 mm 4 mps 740 mmHg 89%
    05:00 +14°C° 0.3 mm 4 mps 740 mmHg 88%
    06:00 +14°C° 0.5 mm 6 mps 740 mmHg 86%
    07:00 +15°C° 0.5 mm 7 mps 740 mmHg 84%
    08:00 +16°C° 0.5 mm 8 mps 740 mmHg 82%
    09:00 +17°C° 0.3 mm 8 mps 741 mmHg 79%
    10:00 +17°C° 0.3 mm 8 mps 741 mmHg 75%
    11:00 +18°C° 0.3 mm 8 mps 742 mmHg 72%
    12:00 +18°C° 0.2 mm 8 mps 742 mmHg 73%
    13:00 +18°C° 0.2 mm 7 mps 742 mmHg 74%
    14:00 +18°C° 0.2 mm 7 mps 742 mmHg 75%
    15:00 +17°C° 0.1 mm 6 mps 742 mmHg 77%
    16:00 +17°C° 0.1 mm 6 mps 742 mmHg 79%
    17:00 +16°C° 0.1 mm 5 mps 742 mmHg 80%
    18:00 +15°C° 0.1 mm 4 mps 743 mmHg 85%
    19:00 +14°C° 0.1 mm 3 mps 743 mmHg 89%
    20:00 +13°C° 0.1 mm 3 mps 743 mmHg 93%
    21:00 +14°C° 0 mm 2 mps 743 mmHg 93%
    22:00 +14°C° 0 mm 2 mps 743 mmHg 93%
    23:00 +14°C° 0 mm 2 mps 743 mmHg 93%

    Tomorrow, 2 April, Thursday

    Time Temperature Precipitation Wind Pressure Humidity
    00:00 +14°C° 0.1 mm 1 mps 743 mmHg 93%
    01:00 +14°C° 0.1 mm 1 mps 743 mmHg 92%
    02:00 +14°C° 0.1 mm 1 mps 743 mmHg 91%
    03:00 +14°C° 0.1 mm 1 mps 743 mmHg 92%
    04:00 +13°C° 0.1 mm 1 mps 743 mmHg 92%
    05:00 +12°C° 0.1 mm 1 mps 744 mmHg 93%
    06:00 +14°C° 0 mm 1 mps 744 mmHg 88%
    07:00 +15°C° 0 mm 1 mps 744 mmHg 83%
    08:00 +16°C° 0 mm 2 mps 745 mmHg 78%
    09:00 +17°C° 0 mm 2 mps 745 mmHg 70%
    10:00 +18°C° 0 mm 2 mps 745 mmHg 62%
    11:00 +20°C° 0 mm 3 mps 745 mmHg 55%
    12:00 +20°C° 0 mm 3 mps 744 mmHg 55%
    13:00 +20°C° 0 mm 4 mps 744 mmHg 55%
    14:00 +20°C° 0 mm 4 mps 744 mmHg 55%
    15:00 +19°C° 0 mm 4 mps 744 mmHg 60%
    16:00 +18°C° 0 mm 4 mps 744 mmHg 65%
    17:00 +17°C° 0 mm 3 mps 744 mmHg 70%
    18:00 +16°C° 0 mm 2 mps 744 mmHg 75%
    19:00 +14°C° 0 mm 1 mps 744 mmHg 80%
    20:00 +13°C° 0 mm 1 mps 744 mmHg 85%
    21:00 +12°C° 0 mm 0 mps 745 mmHg 85%
    22:00 +12°C° 0 mm 0 mps 745 mmHg 85%
    23:00 +11°C° 0 mm 0 mps 745 mmHg 85%

    Day after tomorrow, 3 April, Friday

    Time Temperature Precipitation Wind Pressure Humidity
    00:00 +11°C° 0 mm 0 mps 745 mmHg 85%
    01:00 +11°C° 0 mm 0 mps 744 mmHg 86%
    02:00 +11°C° 0 mm 0 mps 744 mmHg 86%
    03:00 +11°C° 0 mm 1 mps 744 mmHg 87%
    04:00 +11°C° 0 mm 1 mps 744 mmHg 88%
    05:00 +11°C° 0 mm 1 mps 745 mmHg 88%
    06:00 +13°C° 0 mm 1 mps 745 mmHg 82%
    07:00 +14°C° 0 mm 1 mps 745 mmHg 76%
    08:00 +16°C° 0 mm 2 mps 745 mmHg 70%
    09:00 +18°C° 0 mm 2 mps 745 mmHg 63%
    10:00 +19°C° 0 mm 3 mps 746 mmHg 56%
    11:00 +21°C° 0 mm 3 mps 746 mmHg 49%
    12:00 +21°C° 0 mm 4 mps 745 mmHg 49%
    13:00 +21°C° 0 mm 4 mps 745 mmHg 49%
    14:00 +21°C° 0 mm 5 mps 745 mmHg 49%
    15:00 +20°C° 0 mm 4 mps 745 mmHg 55%
    16:00 +19°C° 0 mm 3 mps 745 mmHg 61%
    17:00 +18°C° 0 mm 3 mps 745 mmHg 67%
    18:00 +16°C° 0 mm 2 mps 745 mmHg 73%
    19:00 +15°C° 0 mm 1 mps 746 mmHg 78%
    20:00 +14°C° 0 mm 1 mps 746 mmHg 84%
    21:00 +13°C° 0 mm 1 mps 746 mmHg 83%
    22:00 +12°C° 0 mm 0 mps 746 mmHg 82%
    23:00 +12°C° 0 mm 0 mps 746 mmHg 81%

    4 April, Saturday

    Time Temperature Precipitation Wind Pressure Humidity
    00:00 +13°C° 0 mm 1 mps 746 mmHg 80%
    01:00 +13°C° 0 mm 1 mps 746 mmHg 79%
    02:00 +12°C° 0 mm 1 mps 746 mmHg 78%
    03:00 +12°C° 0 mm 1 mps 746 mmHg 76%
    04:00 +12°C° 0 mm 1 mps 746 mmHg 73%
    05:00 +12°C° 0 mm 2 mps 746 mmHg 71%
    06:00 +14°C° 0 mm 2 mps 746 mmHg 66%
    07:00 +16°C° 0 mm 2 mps 747 mmHg 60%
    08:00 +18°C° 0 mm 2 mps 747 mmHg 54%
    09:00 +20°C° 0 mm 2 mps 747 mmHg 50%
    10:00 +23°C° 0 mm 2 mps 747 mmHg 46%
    11:00 +25°C° 0 mm 2 mps 747 mmHg 41%
    12:00 +25°C° 0 mm 2 mps 747 mmHg 41%
    13:00 +26°C° 0 mm 2 mps 746 mmHg 40%
    14:00 +26°C° 0 mm 2 mps 746 mmHg 39%
    15:00 +26°C° 0 mm 2 mps 746 mmHg 45%
    16:00 +25°C° 0 mm 2 mps 745 mmHg 51%
    17:00 +24°C° 0 mm 1 mps 745 mmHg 57%
    18:00 +23°C° 0 mm 2 mps 745 mmHg 57%
    19:00 +20°C° 0 mm 2 mps 746 mmHg 57%
    20:00 +19°C° 0 mm 2 mps 746 mmHg 58%
    21:00 +19°C° 0 mm 2 mps 746 mmHg 56%
    22:00 +19°C° 0 mm 2 mps 746 mmHg 54%
    23:00 +19°C° 0 mm 2 mps 746 mmHg 51%

    5 April, Sunday

    Time Temperature Precipitation Wind Pressure Humidity
    00:00 +18°C° 0 mm 2 mps 746 mmHg 51%
    01:00 +18°C° 0 mm 3 mps 745 mmHg 50%
    02:00 +18°C° 0 mm 3 mps 745 mmHg 50%
    03:00 +18°C° 0 mm 4 mps 745 mmHg 49%
    04:00 +18°C° 0 mm 4 mps 745 mmHg 47%
    05:00 +17°C° 0 mm 5 mps 745 mmHg 46%
    06:00 +19°C° 0 mm 5 mps 745 mmHg 46%
    07:00 +20°C° 0 mm 6 mps 745 mmHg 47%
    08:00 +21°C° 0 mm 6 mps 745 mmHg 48%
    09:00 +23°C° 0 mm 7 mps 745 mmHg 45%
    10:00 +24°C° 0 mm 7 mps 745 mmHg 42%
    11:00 +27°C° 0 mm 8 mps 745 mmHg 38%
    12:00 +28°C° 0 mm 7 mps 744 mmHg 35%
    13:00 +30°C° 0 mm 7 mps 744 mmHg 32%
    14:00 +32°C° 0 mm 7 mps 743 mmHg 29%
    15:00 +30°C° 0 mm 6 mps 743 mmHg 33%
    16:00 +29°C° 0 mm 5 mps 742 mmHg 38%
    17:00 +27°C° 0 mm 4 mps 742 mmHg 42%
    18:00 +26°C° 0 mm 4 mps 742 mmHg 38%
    19:00 +26°C° 0 mm 4 mps 742 mmHg 34%
    20:00 +25°C° 0 mm 4 mps 742 mmHg 31%
    21:00 +25°C° 0 mm 4 mps 741 mmHg 30%
    22:00 +25°C° 0 mm 5 mps 741 mmHg 30%
    23:00 +24°C° 0 mm 6 mps 741 mmHg 29%

    6 April, Monday

    Time Temperature Precipitation Wind Pressure Humidity
    00:00 +23°C° 0 mm 5 mps 740 mmHg 30%
    01:00 +23°C° 0 mm 4 mps 740 mmHg 31%
    02:00 +22°C° 0 mm 3 mps 740 mmHg 31%
    03:00 +22°C° 0 mm 3 mps 740 mmHg 32%
    04:00 +22°C° 0 mm 3 mps 741 mmHg 32%
    05:00 +21°C° 0 mm 2 mps 741 mmHg 33%
    06:00 +23°C° 0 mm 2 mps 741 mmHg 37%
    07:00 +24°C° 0 mm 2 mps 741 mmHg 41%
    08:00 +25°C° 0 mm 1 mps 742 mmHg 44%
    09:00 +25°C° 0 mm 2 mps 742 mmHg 45%
    10:00 +26°C° 0 mm 3 mps 742 mmHg 46%
    11:00 +27°C° 0 mm 4 mps 742 mmHg 47%
    12:00 +26°C° 0 mm 4 mps 742 mmHg 49%
    13:00 +26°C° 0 mm 3 mps 742 mmHg 51%
    14:00 +25°C° 0 mm 3 mps 742 mmHg 53%
    15:00 +24°C° 0 mm 3 mps 742 mmHg 59%
    16:00 +21°C° 0 mm 3 mps 742 mmHg 66%
    17:00 +20°C° 0 mm 3 mps 742 mmHg 73%
    18:00 +19°C° 0 mm 2 mps 742 mmHg 77%
    19:00 +18°C° 0 mm 2 mps 742 mmHg 80%
    20:00 +18°C° 0 mm 1 mps 742 mmHg 83%
    21:00 +18°C° 0 mm 1 mps 743 mmHg 86%
    22:00 +16°C° 0 mm 1 mps 743 mmHg 88%
    23:00 +16°C° 0 mm 1 mps 743 mmHg 91%
    Show more